RH
26 21 19 19 21 19 17 16 16 16 15 16 16 16 14 14 15 14 11 11 11 11 14 14 16 18 18
17 17 18 21 21 22 22 20 18 19 22 23 22 20 19 19 18 17 16 15 15 15 14 13 18 17 15
23 22 23 23 22 21 24 26 24 26 24 22 22 24 22 20 20 22 21 20 18 18 16 15 15 18 20
30 29 28 28 25 24 26 25 27 26 24 23 24 24 21 20 21 23 24 23 22 20 19 18 17 15 14
41 38 32 29 29 29 26 24 24 24 24 24 21 24 26 25 25 25 22 22 21 20 18 17 16 16 16
38 35 34 33 33 33 30 29 26 27 31 30 29 27 27 26 26 24 22 22 20 19 18 19 18 17 17
42 41 39 40 40 41 40 39 36 38 37 34 36 33 32 30 28 26 25 24 23 22 21 19 17 17 17
51 48 50 50 51 50 49 47 46 45 44 38 36 33 30 27 25 24 21 19 16 15 13 11 10 10 10
65 60 58 57 55 54 51 50 46 42 36 31 26 22 17 14 12 13 14 13 13 12 12 11 10 10 9
70 65 62 59 58 56 50 43 34 28 18 15 12 11 11 12 13 14 15 16 17 17 17 19 19 17 15
69 68 66 61 51 37 26 17 14 13 15 17 17 20 21 18 19 20 21 22 28 28 27 24 20 18 15
74 61 49 36 24 20 20 23 25 23 26 34 35 37 34 32 32 37 36 33 31 26 21 20 20 21 20
43 37 31 27 25 28 38 44 49 57 60 62 64 61 59 52 44 40 38 31 27 26 24 22 20 20 20
52 47 46 45 43 50 56 65 69 67 73 78 74 67 59 56 52 35 28 27 27 26 28 26 25 26 25
85 81 80 80 81 90 89 86 80 76 72 73 76 74 63 42 31 31 30 29 31 30 33 30 32 35 35
100 100 100 100 100 100 96 91 84 81 78 76 65 46 38 35 42 41 39 33 32 33 31 27 23 26 28
100 100 100 100 100 93 89 91 89 82 62 44 38 41 38 33 43 53 35 33 33 30 30 28 25 27 36
Wind_Speed
70 69 69 70 71 73 75 76 78 79 79 79 79 79 80 81 82 83 85 85 87 88 88 88 89 89 90
74 75 76 78 78 78 80 82 83 85 85 85 86 85 85 84 84 85 85 86 86 87 89 89 89 88 88
78 80 81 83 84 85 87 88 89 90 91 92 92 91 90 89 89 88 89 89 89 89 89 89 90 93 93
84 85 85 87 90 92 93 93 93 94 94 94 94 94 94 95 95 95 95 95 95 95 95 95 95 96 96
88 89 91 94 96 97 97 97 95 96 95 98 98 97 98 100 102 103 104 105 104 104 105 104 102 102 102
94 95 97 100 101 100 100 99 97 100 102 101 105 104 106 108 109 110 111 111 111 111 111 111 110 108 108
99 99 101 102 103 102 102 103 104 105 107 107 111 110 112 112 114 114 115 116 118 119 118 118 118 117 117
103 104 104 105 105 106 107 108 109 110 113 113 113 111 111 109 109 107 105 103 103 105 104 103 103 104 105
106 107 108 108 110 111 111 113 111 109 105 108 105 106 103 101 97 92 91 90 89 88 87 88 89 91 94
109 110 111 111 111 109 106 104 99 98 91 96 94 93 91 87 85 85 84 81 82 83 84 86 87 90 92
111 111 109 105 98 92 89 88 86 86 80 86 85 83 85 84 82 81 80 80 83 84 85 86 87 88 92
104 98 90 86 83 81 81 81 80 80 76 79 82 81 82 82 81 80 81 83 85 85 84 81 80 81 84
90 82 79 79 78 77 76 76 76 75 75 78 80 80 83 83 83 81 82 79 79 78 77 77 76 75 77
79 77 76 76 75 75 75 75 76 76 76 77 80 81 82 82 83 80 77 75 70 70 70 69 69 69 70
77 75 75 74 73 75 76 77 77 75 75 76 78 80 81 79 77 74 69 67 65 63 64 64 62 61 62
77 76 74 73 73 73 74 74 75 75 75 75 75 75 72 67 66 65 63 62 58 56 55 56 54 52 54
71 69 71 72 72 73 73 74 74 73 72 70 66 62 61 59 52 58 60 54 52 49 48 47 48 42 45
Wind_Direction
265 267 269 271 273 275 276 277 278 279 279 279 278 277 275 274 272 271 271 270 269 267 266 264 262 260 258
268 270 272 274 275 278 279 279 279 280 279 279 278 278 277 275 275 274 273 272 270 269 267 266 264 261 259
272 274 275 277 279 279 280 280 281 280 280 279 278 278 277 276 275 274 273 272 271 270 269 268 266 263 261
275 275 276 279 280 280 282 282 281 281 280 280 279 278 277 276 276 276 275 274 273 272 270 268 267 265 263
277 278 278 279 280 281 281 280 280 279 279 279 278 279 279 279 278 278 277 276 275 273 272 270 268 266 264
277 278 278 279 280 280 280 279 279 279 279 280 281 281 281 281 280 280 279 278 276 275 273 271 269 267 265
278 279 279 280 280 279 279 278 278 279 280 280 281 281 281 280 280 280 279 278 277 276 275 273 271 269 267
279 279 280 280 279 279 279 279 279 280 281 281 281 281 280 280 279 278 276 275 273 273 272 271 270 269 267
280 281 281 280 281 281 282 282 283 283 283 283 281 280 278 276 274 273 272 272 273 273 272 272 271 269 267
281 280 280 281 282 283 283 283 282 281 279 277 276 275 274 273 273 272 272 274 275 275 275 274 273 270 268
280 281 282 283 281 280 279 277 277 277 275 275 276 276 276 276 276 277 277 277 277 276 275 274 272 270 269
280 280 279 278 275 274 274 275 275 275 274 275 276 277 278 278 279 279 279 278 278 277 276 274 271 270 269
277 274 271 270 271 271 270 270 272 275 276 276 278 280 281 281 281 280 280 279 278 277 275 274 271 267 265
271 271 270 269 269 270 270 271 273 274 277 280 281 281 281 282 283 282 280 280 277 275 273 272 271 271 269
266 267 268 269 270 271 272 273 275 277 277 279 280 282 283 282 282 282 281 278 277 276 274 274 273 272 271
264 266 268 269 270 271 273 275 277 278 279 280 280 278 280 281 283 281 279 279 279 279 278 277 273 270 269
266 267 267 268 269 271 274 276 277 279 279 279 280 280 278 276 273 276 281 281 281 281 280 278 277 274 271